Weather History for Siemreap, Cambodia

Change the Weather History Date:

Monday, November 28, 2011

  Actual Average Record
Temperature  
Mean Temperature 82 °F -  
Max Temperature 87 °F - - ()
Min Temperature 76 °F - - ()
Cooling Degree Days 16    
Growing Degree Days 32 (Base 50)    
Moisture  
Dew Point 70 °F    
Average Humidity 65    
Maximum Humidity 83    
Minimum Humidity 49    
Precipitation  
Precipitation 0.00 in - - ()
Sea Level Pressure  
Sea Level Pressure 29.76 in    
Wind  
Wind Speed 4 mph ()    
Max Wind Speed 9 mph    
Max Gust Speed -    
Visibility 6.1 miles    
Events      
T = Trace of Precipitation, MM = Missing Value Source: Averaged Metar Reports

Daily Weather History Graph

Daily Weather History Graph

Search for Another Location

Airport:

Trip Planner

Search our weather history database for the weather conditions in past years. The results will help you decide how hot, cold, wet, or windy it might be!

Date:

Astronomy

Nov. 28, 2011 Rise Set
Actual Time 6:09 AM ICT 5:34 PM ICT
Civil Twilight 5:46 AM ICT 5:57 PM ICT
Nautical Twilight 5:20 AM ICT 6:23 PM ICT
Astronomical Twilight 4:54 AM ICT 6:49 PM ICT
Moon 8:55 AM ICT (11/28) 8:42 PM ICT (11/28)
Length of Visible Light 12h 10m
Length of Day
11h 25m
Waxing Crescent, 12% of the Moon is Illuminated
Nov 28
Waxing Crescent
Dec 2
First Quarter
Dec 10
Full
Dec 18
Last Quarter
Dec 25
New

Hourly Weather History & Observations

Time (ICT) Temp. Heat Index Dew Point Humidity Pressure Visibility Wind Dir Wind Speed Gust Speed Precip Events Conditions
7:00 AM 77 °F - 71 °F 77% 29.81 in 12 mi East 2.2 mph - -   Scattered Clouds
7:00 AM 77.0 °F - 69.8 °F 78% 29.80 in 6.2 mi ESE 5.8 mph - N/A   Partly Cloudy
7:30 AM 78.8 °F - 69.8 °F 74% 29.80 in 6.2 mi SE 5.8 mph - N/A   Partly Cloudy
8:00 AM 80.6 °F 83.9 °F 69.8 °F 70% 29.80 in 6.2 mi SE 5.8 mph - N/A   Partly Cloudy
8:30 AM 82.4 °F 85.4 °F 68.0 °F 62% 29.83 in 6.2 mi SE 5.8 mph - N/A   Partly Cloudy
9:00 AM 80.6 °F 83.2 °F 68.0 °F 65% 29.83 in 6.2 mi SE 5.8 mph - N/A   Scattered Clouds
9:30 AM 84.2 °F 87.3 °F 68.0 °F 58% 29.83 in 6.2 mi SE 5.8 mph - N/A   Partly Cloudy
10:00 AM 86.0 °F 89.4 °F 68.0 °F 55% 29.83 in 6.2 mi Variable 3.5 mph - N/A   Partly Cloudy
10:30 AM 87.8 °F 91.4 °F 68.0 °F 52% 29.80 in 6.2 mi Variable 3.5 mph - N/A   Partly Cloudy
11:00 AM 87.8 °F 91.4 °F 68.0 °F 52% 29.80 in 6.2 mi Variable 3.5 mph - N/A   Partly Cloudy
11:30 AM 87.8 °F 92.6 °F 69.8 °F 55% 29.80 in 6.2 mi Variable 3.5 mph - N/A   Partly Cloudy
12:00 PM 86.0 °F 90.4 °F 69.8 °F 58% 29.77 in 6.2 mi Variable 3.5 mph - N/A   Partly Cloudy
12:30 PM 86.0 °F 91.8 °F 71.6 °F 62% 29.77 in 6.2 mi Variable 3.5 mph - N/A   Partly Cloudy
1:00 PM 86.0 °F 90.4 °F 69.8 °F 58% 29.74 in 6.2 mi SW 5.8 mph - N/A   Partly Cloudy
1:30 PM 86.0 °F 90.4 °F 69.8 °F 58% 29.74 in 6.2 mi SSW 8.1 mph - N/A   Partly Cloudy
2:00 PM 86.0 °F 90.4 °F 69.8 °F 58% 29.71 in 6.2 mi SW 9.2 mph - N/A   Partly Cloudy
2:30 PM 87.8 °F 92.6 °F 69.8 °F 55% 29.71 in 6.2 mi SW 8.1 mph - N/A   Partly Cloudy
3:00 PM 87.8 °F 90.4 °F 66.2 °F 49% 29.71 in 6.2 mi SW 8.1 mph - N/A   Partly Cloudy
3:30 PM 87.8 °F 90.4 °F 66.2 °F 49% 29.71 in 6.2 mi SSW 8.1 mph - N/A   Partly Cloudy
4:00 PM 86.0 °F 88.2 °F 66.2 °F 51% 29.71 in 6.2 mi SSW 8.1 mph - N/A   Partly Cloudy
4:30 PM 86.0 °F 89.4 °F 68.0 °F 55% 29.71 in 6.2 mi SSW 6.9 mph - N/A   Partly Cloudy
5:00 PM 84.2 °F 87.3 °F 68.0 °F 58% 29.71 in 6.2 mi SSW 6.9 mph - N/A   Partly Cloudy
5:30 PM 84.2 °F 87.3 °F 68.0 °F 58% 29.71 in 6.2 mi South 4.6 mph - N/A   Partly Cloudy
6:00 PM 82.4 °F 86.3 °F 69.8 °F 66% 29.74 in 6.2 mi Variable 2.3 mph - N/A   Partly Cloudy
6:30 PM 82.4 °F 86.3 °F 69.8 °F 66% 29.74 in 5.6 mi Calm Calm - N/A   Partly Cloudy
7:00 PM 80.6 °F 84.6 °F 71.6 °F 74% 29.74 in 5.6 mi SE 2.3 mph - N/A   Partly Cloudy
7:30 PM 80.6 °F 83.9 °F 69.8 °F 70% 29.74 in 5.6 mi SSE 2.3 mph - N/A   Partly Cloudy
8:00 PM 80.6 °F 85.4 °F 73.4 °F 79% 29.77 in 5.6 mi SE 1.2 mph - N/A   Partly Cloudy
8:30 PM 78.8 °F - 73.4 °F 83% 29.77 in 5.6 mi ESE 1.2 mph - N/A   Partly Cloudy
9:00 PM 78.8 °F - 73.4 °F 83% 29.77 in 5.0 mi Calm Calm - N/A   Partly Cloudy
9:30 PM 78.8 °F - 73.4 °F 83% 29.77 in 5.0 mi Calm Calm - N/A   Partly Cloudy
10:00 PM 78.8 °F - 73.4 °F 83% 29.77 in 5.0 mi Calm Calm - N/A   Partly Cloudy
10:30 PM 78.8 °F - 73.4 °F 83% 29.77 in 5.0 mi Variable 2.3 mph - N/A   Partly Cloudy
11:00 PM 77.0 °F - 71.6 °F 83% 29.77 in 5.0 mi Calm Calm - N/A   Partly Cloudy